TimeHST,TemperatureF,Dew PointF,Humidity,Sea Level PressureIn,VisibilityMPH,Wind Direction,Wind SpeedMPH,Gust SpeedMPH,PrecipitationIn,Events,Conditions,WindDirDegrees,DateUTC
12:53 AM,75.9,68.0,76,30.01,10.0,East,5.8,-,N/A,,Mostly Cloudy,80,2012-09-30 10:53:00
1:53 AM,75.0,66.0,73,29.98,10.0,NE,8.1,-,N/A,,Mostly Cloudy,40,2012-09-30 11:53:00
2:53 AM,73.9,66.9,79,29.96,10.0,NNE,4.6,-,N/A,,Overcast,20,2012-09-30 12:53:00
3:53 AM,73.9,68.0,82,29.95,10.0,North,5.8,-,0.00,,Overcast,360,2012-09-30 13:53:00
4:53 AM,73.9,68.0,82,29.96,10.0,North,4.6,-,N/A,,Overcast,10,2012-09-30 14:53:00
5:53 AM,73.9,68.0,82,29.97,10.0,NNE,3.5,-,N/A,,Mostly Cloudy,20,2012-09-30 15:53:00
6:53 AM,75.0,68.0,79,29.99,10.0,North,3.5,-,N/A,,Mostly Cloudy,360,2012-09-30 16:53:00
7:53 AM,78.1,66.9,68,30.00,10.0,Variable,3.5,-,N/A,,Mostly Cloudy,0,2012-09-30 17:53:00
8:53 AM,80.1,64.9,60,30.01,10.0,Variable,3.5,-,N/A,,Scattered Clouds,0,2012-09-30 18:53:00
9:53 AM,81.0,66.0,60,30.01,10.0,South,6.9,-,N/A,,Scattered Clouds,180,2012-09-30 19:53:00
10:53 AM,81.0,64.9,58,30.00,10.0,South,9.2,-,N/A,,Scattered Clouds,170,2012-09-30 20:53:00
11:53 AM,82.9,66.0,56,29.98,10.0,SSE,10.4,-,N/A,,Scattered Clouds,150,2012-09-30 21:53:00
12:53 PM,82.0,66.0,58,29.96,10.0,SSE,9.2,-,N/A,,Scattered Clouds,150,2012-09-30 22:53:00
1:53 PM,81.0,68.0,65,29.94,10.0,SSE,8.1,-,N/A,,Scattered Clouds,150,2012-09-30 23:53:00
2:53 PM,81.0,68.0,65,29.93,10.0,SSE,5.8,-,N/A,,Scattered Clouds,160,2012-10-01 00:53:00
3:53 PM,81.0,66.0,60,29.92,10.0,Variable,5.8,-,N/A,,Scattered Clouds,0,2012-10-01 01:53:00
4:53 PM,80.1,68.0,67,29.92,10.0,South,8.1,-,N/A,,Scattered Clouds,190,2012-10-01 02:53:00
5:53 PM,79.0,68.0,69,29.93,10.0,SSE,6.9,-,N/A,,Scattered Clouds,150,2012-10-01 03:53:00
6:53 PM,79.0,66.9,66,29.95,10.0,SE,6.9,-,N/A,,Mostly Cloudy,130,2012-10-01 04:53:00
7:53 PM,79.0,66.9,66,29.98,10.0,NE,6.9,-,N/A,,Mostly Cloudy,40,2012-10-01 05:53:00
8:53 PM,78.1,66.9,68,29.99,10.0,North,4.6,-,N/A,,Scattered Clouds,360,2012-10-01 06:53:00
9:53 PM,78.1,66.9,68,30.00,10.0,Calm,Calm,-,N/A,,Mostly Cloudy,0,2012-10-01 07:53:00
10:53 PM,78.1,66.9,68,29.99,10.0,Calm,Calm,-,N/A,,Mostly Cloudy,0,2012-10-01 08:53:00
11:53 PM,77.0,66.9,71,29.98,10.0,North,3.5,-,N/A,,Mostly Cloudy,10,2012-10-01 09:53:00